Location: Waco, TX
(31.5480°N, 97.1670°W)
Time: 02:57:16
(UTC-05:00)

ISS - Pass Details

Date: 16 February 2018
Orbit: 402 x 406 km, 51.6° (Epoch: 18 June)

Event Time Altitude Azimuth Distance (km) Brightness Sun altitude
Rises 19:04:42 0° 289° (WNW) 2,311 1.3 -10.9°
Reaches altitude 10° 19:08:19 10° 246° (WSW) 1,448 0.3 -11.7°
Maximum altitude 19:08:58 10° 235° (SW) 1,421 0.0 -11.8°
Drops below altitude 10° 19:09:36 10° 223° (SW) 1,447 -0.2 -11.9°
Sets 19:13:14 0° 181° (S) 2,303 0.1 -12.7°
